sat.trackr.live / text

‹ back to catalog

STARLINK-34602

NORAD 65333 · 2025-189L

PAYLOAD ACTIVE UNKNOWN

§ Identity

Operator
Country
US
Launch date
2025-08-27
Launch site
AFETR
Launch vehicle
Mass (kg)
RCS (m²)

Purposes: comms

External: N2YO · Heavens-Above · Gunter

§ Orbital elements

Epoch: 2026-05-25T04:40:26.340384Z

Period
94.01 min
Inclination
53.1589°
Eccentricity
0.0001202
Mean motion
15.31716273 rev/d
Perigee alt
469.9 km
Apogee alt
471.5 km
Semi-major
6,848.8 km
B*
6.3101e-4
RAAN
211.1237°
Arg perigee
95.5567°
Mean anomaly
264.5572°
Rev number
4,282

§ Raw data

STARLINK-346021 65333U 25189L   26145.19474931  .00019276  00000+0  63101-3 0  99992 65333  53.1589 211.1237 0001202  95.5567 264.5572 15.31716273 42825

JSON: /api/v1/satellites/65333 · /tle

For live sub-satellite position, see the globe view (requires WebGL).

§ Visibility from observer

Set your observer location to see the next 7 days of passes ≥ 10°. The values pass through the URL so the page stays shareable.

No JS? Fill the form by hand. The geolocation button needs JavaScript.